GFSCGP_925_thetae_012.txt.gz
Theta_e
320 321 322 321 320 318 318 318 319 321 320 319 319 321 321 321 322 322 323 323 323 327 327 324 323 323 326 327 326 326 324 322 321 320 318 317 317 316 316 316 314 313 312 311
318 321 319 319 319 319 319 319 320 320 319 318 322 320 321 321 322 322 322 323 325 324 323 323 324 325 324 323 322 320 318 317 316 317 316 315 315 315 315 315 313 312 311 309
322 320 319 320 321 321 321 320 323 322 321 321 321 322 321 321 321 321 322 322 322 322 322 322 322 321 320 319 318 318 316 315 314 314 315 314 314 314 313 313 312 312 311 309
321 319 320 321 322 321 322 322 321 321 321 322 321 323 322 321 321 321 321 321 321 320 320 321 321 320 319 318 317 316 316 315 314 313 314 314 313 314 314 314 312 311 308 307
321 321 322 323 322 320 323 322 321 321 322 322 323 324 325 322 321 321 321 321 321 321 321 320 319 319 318 318 317 316 315 315 315 314 313 313 314 312 311 309 309 307 306 304
321 320 322 322 321 320 322 323 323 324 325 332 323 324 326 323 322 321 321 321 321 320 320 319 318 318 318 318 317 316 315 315 314 314 313 311 310 310 309 308 306 304 303 302
323 322 322 321 324 324 322 325 334 337 337 335 326 322 327 323 322 321 321 321 321 321 321 320 319 318 317 317 316 316 316 316 314 313 312 312 310 309 307 306 304 302 302 302
324 327 322 321 322 322 323 323 336 331 334 330 322 321 323 322 321 320 319 319 320 320 319 319 317 316 316 316 316 316 316 315 314 313 312 311 308 306 305 303 301 301 301 301
325 324 321 320 320 320 324 324 320 327 326 330 320 324 322 321 320 319 319 318 319 318 318 318 317 316 316 315 315 314 314 314 312 310 308 308 306 305 303 301 300 300 300 300
319 325 319 319 321 322 322 320 326 331 330 324 319 319 324 322 321 320 318 318 318 317 318 318 316 316 315 315 314 313 312 311 310 308 306 305 304 304 302 301 300 300 298 297
319 322 321 320 321 321 322 323 322 320 325 326 324 320 318 318 319 318 317 317 318 317 316 316 315 315 314 313 313 311 310 309 308 307 305 304 303 302 301 300 299 298 297 297
318 321 327 319 319 319 319 320 320 329 322 328 326 320 319 318 318 319 317 316 317 317 316 315 314 313 312 311 311 310 308 307 306 305 304 302 302 300 299 299 298 296 296 296
320 324 328 322 323 320 318 319 318 320 323 321 326 322 318 318 318 318 316 316 316 315 314 314 313 312 311 310 309 307 307 305 305 304 302 302 300 299 298 297 296 296 295 294
319 320 319 322 318 316 316 316 316 317 326 324 322 319 318 318 318 317 316 316 315 314 314 313 312 310 308 306 305 305 304 304 304 303 302 301 299 298 297 296 295 294 293 292
320 321 320 318 316 316 316 316 316 316 317 319 319 317 317 317 317 316 315 315 314 314 313 311 310 308 306 305 304 304 303 304 304 302 301 300 299 297 297 296 294 293 291 290
320 325 322 320 317 316 316 315 315 316 316 316 317 317 317 317 316 315 314 314 314 312 310 308 308 306 305 304 304 303 302 303 303 301 301 300 299 297 296 295 294 292 291 290
323 325 323 325 319 320 326 321 316 316 316 316 319 317 317 317 316 315 314 313 311 309 308 307 306 305 304 302 300 300 301 302 302 302 301 300 297 296 296 295 293 291 290 289
322 322 322 323 321 327 319 316 316 316 316 315 315 317 317 315 314 313 311 310 308 307 306 305 304 302 301 300 300 299 298 298 298 300 299 299 297 296 295 294 292 291 290 289
320 323 318 325 320 318 318 317 316 316 316 315 318 317 315 313 312 312 309 307 306 306 305 302 301 301 300 299 298 297 297 297 297 297 298 298 296 295 294 293 291 290 289 289
319 323 325 319 321 320 319 316 315 315 319 318 317 316 314 312 314 312 308 306 304 302 301 301 300 299 298 297 296 296 295 295 295 296 296 295 294 294 294 292 290 289 289 289
316 318 320 320 318 319 315 315 314 318 321 317 316 314 313 312 311 308 306 304 301 301 300 299 298 297 297 296 295 295 295 294 295 296 295 295 294 292 292 291 290 290 289 288
317 320 317 318 320 320 315 314 317 319 317 315 313 312 311 309 308 305 303 301 300 300 298 297 296 296 295 295 295 295 294 294 295 294 294 294 294 293 292 290 290 289 288 288
321 322 323 320 320 318 316 315 315 315 315 313 312 310 308 308 305 303 301 301 300 298 297 296 296 295 295 295 295 295 294 294 293 292 292 292 292 291 290 290 289 288 287 286
316 315 324 321 317 315 316 315 315 314 312 310 309 308 308 304 303 301 301 300 298 297 296 296 295 295 295 295 295 294 293 293 292 291 291 291 290 290 289 289 288 287 287 286
319 317 318 319 317 317 316 315 313 311 310 309 308 305 303 302 301 300 299 298 297 296 296 295 295 295 295 294 294 293 291 291 291 290 289 289 290 289 289 288 287 286 285 284
317 316 320 321 318 318 316 312 310 310 309 308 304 303 301 300 299 298 298 297 296 295 295 295 294 294 294 294 293 292 291 290 289 289 288 289 288 288 288 288 287 286 285 284

GFSCGP_925_thetae_015.txt.gz
Theta_e
319 317 317 318 318 317 317 317 317 317 317 318 317 316 317 317 316 315 316 321 321 321 323 323 322 323 324 324 325 323 319 317 321 320 318 315 315 315 315 313 312 312 312 312
317 318 317 318 319 319 318 319 320 317 318 316 317 318 317 318 317 317 319 320 320 321 320 320 320 319 318 318 317 317 316 316 315 315 315 314 315 314 314 313 313 311 310 309
318 318 318 319 320 320 320 321 320 320 318 318 318 319 318 318 318 319 317 317 318 319 319 319 318 317 317 316 316 315 315 314 314 314 314 313 313 313 314 313 312 309 307 306
318 319 320 320 321 319 323 321 321 320 319 318 316 320 318 318 319 319 318 316 316 317 318 318 318 317 317 316 316 315 315 314 314 313 313 313 313 313 311 309 308 307 305 304
320 320 321 322 320 319 322 321 320 320 320 320 320 320 319 319 320 319 317 316 315 315 315 316 317 318 318 317 316 315 315 315 314 314 314 313 311 309 310 307 306 305 304 302
319 319 319 320 320 319 319 322 322 322 322 323 323 322 326 323 320 319 319 318 316 315 315 316 318 318 317 317 316 316 315 315 314 314 313 311 310 308 307 305 304 303 301 301
321 321 320 320 321 321 320 323 324 326 324 325 328 324 325 321 319 319 320 317 316 315 314 313 316 317 317 317 316 316 316 315 314 313 312 310 308 306 305 303 302 301 300 300
324 324 319 319 320 320 322 322 320 329 325 323 317 324 321 318 317 317 317 316 316 315 314 313 315 315 316 315 315 315 314 314 311 310 309 307 305 305 304 303 301 300 300 300
325 322 319 318 318 319 323 319 318 323 322 318 320 321 319 318 318 317 316 315 316 315 314 313 315 314 314 313 313 313 312 310 309 308 306 305 304 304 303 301 301 300 299 296
319 322 318 318 319 320 319 318 321 319 322 323 319 324 325 321 321 320 316 314 313 312 312 312 312 311 311 312 311 310 310 309 308 307 305 304 303 302 302 301 299 298 297 295
318 322 319 318 318 319 320 321 320 319 317 319 318 317 317 320 320 318 315 314 313 312 311 310 311 311 311 310 310 309 308 307 307 306 305 304 302 302 300 299 298 297 296 295
316 319 316 320 318 318 318 320 320 315 320 315 315 315 315 316 315 314 314 314 313 311 310 310 311 310 309 307 306 305 305 306 306 305 304 303 302 300 299 298 297 296 296 295
318 318 318 321 321 319 317 318 318 320 312 315 309 313 316 318 317 316 314 313 311 310 309 308 308 308 307 305 305 304 304 304 303 304 304 302 301 300 299 297 296 295 294 293
318 319 317 317 317 315 315 315 314 318 314 316 316 318 315 318 318 313 312 311 310 309 308 307 306 307 306 305 304 304 303 302 302 304 303 303 301 300 298 296 295 294 293 292
318 320 319 317 316 315 315 315 314 314 314 314 314 318 317 314 314 313 313 312 311 309 308 306 305 304 304 304 303 300 300 300 302 302 302 302 301 299 298 297 295 293 293 291
319 318 317 317 317 316 316 316 315 314 315 315 315 316 315 313 312 312 312 311 309 308 306 305 305 304 304 302 300 300 298 297 297 296 297 301 299 298 297 296 295 295 291 290
320 313 312 317 315 316 313 317 316 316 315 315 314 316 314 313 312 310 309 308 307 306 305 304 304 304 301 300 298 296 296 296 295 294 297 298 298 297 297 296 295 293 290 289
315 314 310 309 307 309 318 315 314 315 314 313 316 315 313 311 309 308 306 305 305 305 304 303 304 300 299 297 296 295 295 295 294 296 296 296 296 296 295 294 293 290 290 289
318 311 306 312 312 312 317 316 315 315 314 316 316 314 312 311 310 307 305 305 304 303 303 300 299 298 297 296 295 295 295 294 294 296 295 295 295 294 294 294 292 291 290 289
316 310 308 306 307 306 313 315 314 314 312 316 314 313 311 310 306 308 304 304 303 300 300 298 296 296 295 295 295 295 295 294 295 295 294 294 294 294 293 293 291 290 289 288
307 307 306 314 303 309 314 314 313 314 311 315 312 311 311 309 306 306 304 301 300 300 298 296 296 295 295 295 295 295 294 294 294 293 293 293 293 293 293 292 290 289 288 287
309 307 312 314 312 311 313 313 311 311 314 312 310 310 309 308 307 307 301 299 299 297 296 295 295 295 294 295 295 294 294 293 293 292 291 291 291 291 291 290 289 288 287 286
314 313 312 311 310 310 313 312 312 312 312 311 310 309 308 306 307 301 300 299 297 296 296 295 295 294 295 294 294 293 292 292 292 291 290 290 289 289 289 288 288 287 286 285
314 315 310 313 315 315 313 313 313 311 310 309 309 309 308 307 301 300 298 296 295 296 295 294 294 294 294 294 294 293 292 291 291 290 289 289 289 289 289 288 287 286 285 285
311 314 314 311 315 314 314 311 309 309 308 309 307 308 303 301 299 297 295 295 295 294 294 294 294 294 294 294 293 293 292 291 290 289 288 288 288 287 288 287 286 285 285 284
315 313 311 310 313 313 312 310 310 311 309 308 307 302 301 298 296 295 294 294 294 294 294 293 294 293 293 293 292 292 292 291 290 288 288 287 287 287 287 286 285 285 284 284

GFSCGP_925_thetae_018.txt.gz
Theta_e
317 316 315 316 315 315 316 316 315 316 316 317 314 316 316 314 318 319 322 322 321 319 318 318 319 320 326 327 324 324 326 325 324 316 315 315 314 313 312 311 311 310 310 309
315 316 316 317 318 319 318 317 317 316 316 314 314 316 315 317 316 320 321 320 320 318 317 316 317 319 318 319 316 315 315 315 315 314 314 314 313 313 313 311 311 308 307 306
316 317 317 319 318 320 320 319 319 319 317 315 316 316 318 317 317 317 317 318 319 318 317 316 315 315 315 315 315 314 314 314 314 314 313 313 313 313 312 309 307 306 306 305
317 318 319 319 319 318 322 320 319 319 316 314 314 318 318 317 318 318 317 317 318 318 317 316 315 315 315 314 314 314 314 314 314 314 314 313 313 312 310 309 307 305 305 303
319 319 319 319 319 318 321 320 319 319 318 319 318 317 317 318 319 318 316 316 316 316 316 314 316 316 316 315 315 315 314 314 314 314 313 313 311 309 308 306 306 305 304 301
318 318 318 319 319 319 318 321 321 320 319 321 322 320 319 319 318 318 316 315 314 314 313 315 316 317 316 316 316 315 315 314 314 313 312 311 309 308 306 304 303 302 300 300
319 319 318 319 321 319 317 321 321 324 322 322 324 324 322 319 319 319 317 315 314 312 312 313 315 316 316 316 315 315 314 312 313 312 310 309 307 306 305 304 303 301 300 300
321 322 318 317 318 319 321 319 319 328 322 320 319 323 320 318 319 318 316 315 314 312 311 311 311 313 313 313 313 313 311 309 309 308 307 306 305 305 304 303 301 300 300 299
321 320 318 317 317 319 321 317 317 319 316 316 319 320 318 317 317 317 317 316 313 311 310 310 311 311 312 311 311 310 309 308 307 307 306 305 303 303 302 301 301 300 299 298
319 319 317 317 319 318 315 316 320 315 319 321 317 323 321 320 319 315 314 312 311 311 310 309 309 309 310 309 308 308 307 307 306 306 305 304 303 302 302 301 301 299 298 296
319 317 317 320 317 318 317 319 318 316 314 317 316 316 314 320 318 314 312 311 311 309 309 308 308 307 307 306 304 304 304 305 306 305 305 304 303 302 301 300 299 298 296 295
316 315 315 320 316 317 317 319 316 314 317 312 312 314 314 314 313 313 313 312 309 309 308 307 307 306 305 305 304 304 303 303 304 303 304 303 302 301 299 298 298 297 296 295
315 315 315 319 319 316 316 317 319 314 310 314 308 310 313 315 313 313 311 310 309 307 306 305 306 305 305 305 304 303 300 300 300 302 302 301 300 301 300 300 298 295 294 294
317 317 315 317 318 313 314 314 316 315 311 313 312 314 313 314 313 311 310 308 307 306 306 304 304 304 303 303 302 300 299 298 297 296 296 296 299 300 300 298 296 296 295 293
315 317 317 315 314 314 314 314 313 313 313 314 313 315 315 314 312 311 310 308 307 306 305 305 304 303 303 302 300 297 296 296 295 294 296 297 297 296 297 297 296 296 295 294
316 315 314 315 315 316 315 315 315 313 313 314 314 317 313 311 310 310 309 307 307 306 305 304 303 303 303 299 296 295 295 295 294 294 296 296 295 295 296 296 296 296 294 290
316 311 308 311 312 313 310 315 315 315 313 313 313 314 312 311 311 308 307 306 306 305 304 303 302 301 298 296 295 295 295 294 294 295 295 295 294 294 295 295 295 294 292 290
312 311 303 305 302 305 315 313 313 313 315 314 313 312 311 310 308 305 304 304 304 303 302 301 299 297 296 295 295 294 294 294 294 295 294 294 293 293 294 294 294 291 290 291
312 305 306 303 309 306 314 314 314 312 313 314 314 312 311 308 306 306 304 303 303 302 300 298 296 296 295 294 294 294 294 293 294 294 294 293 293 293 293 292 292 292 291 288
312 304 304 308 303 302 306 313 312 311 312 314 312 311 310 307 305 306 303 303 302 299 297 295 295 295 294 294 294 294 293 294 293 293 293 292 292 293 293 292 291 290 288 288
307 302 304 297 300 306 307 312 311 312 309 313 311 309 308 307 304 304 305 300 299 297 295 295 295 294 294 294 294 294 293 293 293 292 292 291 290 290 290 291 290 288 288 286
309 308 307 306 301 309 309 312 311 308 311 311 309 308 308 307 307 307 302 299 296 295 295 294 294 294 294 294 294 293 293 292 292 291 290 290 289 289 289 288 287 287 286 285
312 308 309 310 310 308 309 310 309 310 311 308 307 307 307 306 306 304 298 295 295 294 294 294 293 293 294 293 293 293 293 292 291 290 290 289 289 288 288 287 287 286 285 284
311 312 309 311 312 311 311 312 311 310 309 307 307 307 307 307 303 297 294 294 293 293 293 293 293 293 293 293 293 292 292 291 291 290 289 288 287 287 287 286 285 285 284 284
308 312 313 309 311 313 313 312 308 307 307 307 308 307 306 299 295 294 293 293 293 293 293 293 293 293 292 293 293 292 291 291 290 290 288 287 287 287 287 285 285 284 283 283
312 311 310 311 309 310 311 308 307 308 308 308 307 301 296 295 294 293 292 293 293 292 292 292 292 292 292 292 290 291 291 290 289 289 288 287 286 287 286 285 284 284 283 283

GFSCGP_925_thetae_024.txt.gz
Theta_e
313 313 313 314 312 312 313 314 314 313 312 314 316 317 316 317 318 318 317 317 316 316 316 320 322 325 326 326 325 325 323 324 315 313 313 313 313 313 314 312 309 310 309 306
313 314 314 316 315 314 314 313 315 315 312 315 317 316 315 316 319 317 316 316 316 316 317 318 322 325 326 326 326 326 324 319 314 315 316 316 315 313 311 309 309 307 306 305
314 315 315 316 316 317 317 316 317 316 315 313 316 317 316 316 318 317 316 315 316 318 318 317 319 322 321 316 316 318 320 316 315 316 314 313 313 311 309 306 306 305 304 304
317 316 316 315 316 316 319 318 317 315 315 317 313 321 318 318 319 318 317 315 315 316 315 313 312 312 313 313 313 313 313 313 313 312 312 313 312 312 310 306 304 304 304 303
319 317 316 316 317 317 320 316 316 315 315 314 316 319 316 318 321 319 317 316 315 314 312 311 311 311 311 311 312 312 312 312 312 313 312 312 311 309 307 305 305 305 304 304
316 315 316 317 317 316 316 318 316 317 315 317 319 316 316 318 319 318 316 316 315 314 313 312 312 311 311 312 313 313 313 313 312 312 312 311 309 308 307 306 305 304 302 302
316 316 315 316 319 316 317 317 319 321 319 320 318 318 315 315 316 318 317 315 313 312 311 311 312 312 312 312 312 312 312 311 311 310 309 308 307 306 304 303 303 302 302 301
317 316 316 314 317 318 316 318 319 326 322 319 317 322 319 314 314 315 314 312 311 311 311 311 311 310 310 310 310 310 309 309 308 307 306 304 303 303 303 303 303 302 301 300
318 319 316 315 315 317 318 315 314 317 313 315 317 318 317 315 315 314 313 312 310 309 309 308 308 308 309 309 308 308 307 306 306 306 305 305 304 303 303 302 302 301 300 299
317 317 315 315 316 314 316 314 316 312 316 318 317 318 318 318 317 315 313 311 309 307 306 306 307 307 307 306 304 304 304 304 304 305 304 303 302 300 297 298 299 300 300 299
315 313 314 315 315 317 316 316 313 313 311 314 313 316 312 317 317 315 311 310 308 306 305 305 306 306 304 303 303 303 302 301 302 302 302 300 296 295 293 295 299 299 298 297
314 312 315 316 314 315 315 316 311 310 313 310 310 311 310 311 313 311 310 310 307 305 304 304 304 304 304 302 302 302 300 299 300 301 297 295 294 294 295 296 296 295 294 294
313 313 315 315 313 312 317 316 311 309 308 313 309 310 311 310 310 310 310 307 306 304 304 303 304 303 303 302 302 299 299 298 296 295 295 294 294 294 293 293 293 292 293 294
312 312 312 313 313 312 312 314 313 311 309 310 310 310 312 313 311 309 307 306 304 303 303 301 301 301 301 301 300 297 296 296 295 294 294 294 294 294 293 292 292 292 294 295
310 314 313 313 312 312 312 311 313 313 311 312 311 310 309 311 310 308 307 305 304 304 303 301 301 301 301 300 297 296 295 295 294 294 294 294 295 293 293 292 291 292 294 294
311 311 310 315 312 311 313 309 309 310 310 311 311 310 308 310 307 307 307 305 305 304 302 302 302 301 300 297 295 295 294 294 294 293 294 295 294 293 292 292 292 292 293 292
310 308 305 306 307 306 306 309 310 311 309 309 311 310 309 310 309 307 306 305 304 303 301 301 301 300 297 295 295 294 294 294 293 293 294 294 293 292 292 292 292 292 291 291
308 305 299 302 301 303 308 308 310 311 311 308 311 310 309 309 307 306 304 304 303 301 301 301 300 296 296 295 294 293 293 293 293 293 294 293 292 292 291 290 291 292 290 290
306 302 303 302 304 305 307 308 311 312 311 310 310 310 308 306 306 307 304 302 302 301 301 299 296 295 295 294 293 293 293 293 293 293 293 292 291 291 290 289 289 291 290 289
305 301 302 300 301 301 305 308 309 310 311 309 309 308 307 306 308 310 303 301 300 301 299 296 294 294 293 293 293 293 293 293 293 292 292 291 290 290 289 288 288 289 290 287
305 302 301 294 298 304 304 310 309 312 309 308 308 307 305 307 308 305 301 301 301 297 294 294 293 293 293 293 293 293 292 292 292 292 292 291 290 289 288 288 287 287 287 286
310 309 303 302 299 309 305 310 311 309 306 308 307 306 307 305 303 303 301 297 294 293 293 293 293 292 292 293 292 292 292 292 292 291 291 290 290 289 288 287 287 287 286 285
310 307 307 307 308 305 304 308 307 306 307 308 307 306 307 304 304 303 297 294 293 292 292 292 292 292 292 292 291 292 292 291 291 291 290 290 289 288 287 287 286 285 285 284
308 306 305 308 308 306 305 305 306 307 307 308 306 306 306 306 304 298 296 293 291 291 292 292 291 291 291 290 291 291 290 289 289 290 289 289 288 288 286 286 285 285 284 284
307 307 308 306 307 307 307 307 306 307 307 306 306 305 305 303 300 297 293 291 291 291 292 291 290 290 290 290 290 289 289 288 289 289 288 289 288 288 286 285 285 285 285 284
307 308 307 308 307 308 307 308 308 308 307 306 306 303 298 299 294 294 292 291 291 291 291 290 290 290 289 290 289 288 288 288 288 288 288 287 287 287 286 285 285 285 284 283

GFSCGP_925_thetae_030.txt.gz
Theta_e
319 320 318 317 317 316 317 318 318 317 320 320 320 323 322 325 328 328 328 329 328 328 327 327 327 329 329 329 329 329 327 325 325 321 318 316 314 312 310 311 311 310 309 308
319 320 318 319 317 318 318 318 320 318 319 323 324 325 323 325 328 329 328 328 329 329 329 328 328 329 329 329 329 329 327 327 325 323 320 318 316 316 314 310 309 308 308 308
320 320 319 320 319 320 320 321 320 321 321 322 324 325 325 324 325 326 327 328 329 330 331 330 329 329 329 329 329 328 328 326 323 320 318 317 316 313 311 310 309 308 307 306
321 319 320 321 321 320 321 320 320 321 322 321 322 322 327 326 326 327 327 328 330 331 331 330 330 330 329 329 328 328 324 320 319 318 318 317 316 316 314 312 309 308 306 305
321 320 321 321 321 320 322 319 321 321 322 322 322 322 326 327 328 329 331 332 332 331 329 328 326 324 322 321 323 324 321 318 316 316 315 316 315 313 311 309 308 307 306 305
321 319 321 321 320 320 321 322 322 322 323 323 322 323 320 327 328 330 330 328 329 326 325 321 319 317 317 317 318 319 316 315 314 314 314 314 312 311 309 307 306 304 303 304
321 321 320 320 322 322 323 324 322 325 325 323 323 322 319 322 324 329 329 325 326 322 321 319 317 316 316 316 316 316 315 314 314 313 311 309 308 306 304 304 304 304 303 302
322 323 320 319 322 321 322 322 321 318 322 322 322 324 324 322 321 326 327 324 324 321 320 319 317 317 316 316 316 315 314 313 311 310 307 306 305 305 304 304 304 301 300 300
321 320 319 318 320 320 321 322 322 325 321 326 322 323 322 321 321 324 326 323 322 321 320 319 318 317 316 315 315 314 312 310 308 306 306 305 305 305 303 300 299 299 299 298
322 322 319 319 319 320 322 320 323 324 324 319 318 319 319 323 323 324 326 323 322 321 320 320 318 317 315 314 312 310 307 306 306 306 306 305 303 300 298 298 298 297 296 296
320 321 322 320 321 322 321 321 320 320 322 318 317 316 321 321 323 323 325 323 322 321 321 320 317 315 314 311 308 307 305 304 305 304 303 301 299 298 298 297 296 296 295 295
319 323 325 322 319 319 320 321 319 319 319 321 322 317 316 320 322 322 323 323 322 321 320 319 316 313 310 308 307 305 303 303 303 301 300 299 298 298 297 296 296 295 295 294
320 323 325 322 320 319 320 320 318 318 320 320 329 316 316 319 320 321 322 322 321 320 318 317 314 311 309 307 305 304 303 303 301 299 298 298 298 297 296 296 296 295 294 294
316 322 323 324 320 320 320 320 318 318 320 317 319 314 316 317 318 319 321 321 320 318 317 316 313 311 308 306 305 303 302 301 299 298 297 297 297 297 297 296 295 294 294 294
320 322 320 317 317 317 317 318 319 318 318 318 315 316 314 315 315 317 319 320 319 317 315 314 313 310 307 306 305 303 300 299 298 297 297 297 297 297 296 296 295 293 293 293
318 322 319 320 317 316 317 317 317 318 318 318 317 317 316 316 315 316 318 318 318 316 314 313 312 309 306 305 305 300 300 298 297 297 296 296 296 296 295 294 293 293 293 293
321 320 319 319 314 315 321 318 317 316 317 317 318 317 316 315 315 316 317 317 316 316 314 312 310 307 306 304 300 300 298 296 296 296 295 295 296 295 294 293 293 292 292 293
318 317 316 321 313 328 314 313 314 316 316 316 315 315 314 315 316 316 316 317 316 315 313 312 309 306 305 301 299 298 296 296 296 295 295 295 294 294 293 293 292 292 292 292
314 316 317 327 316 314 311 311 312 315 314 315 315 314 314 315 315 317 315 314 315 314 312 311 307 304 301 298 297 296 296 296 295 294 294 294 294 293 293 292 292 292 291 291
312 313 319 316 332 333 315 312 313 314 316 313 315 316 315 315 318 313 315 313 313 312 311 307 303 299 298 297 296 296 296 295 294 294 293 293 293 292 292 292 292 291 290 290
321 319 325 319 326 318 312 310 313 316 315 315 315 316 316 317 315 315 314 313 312 310 306 301 299 297 296 296 296 295 295 294 293 293 293 293 292 292 291 291 291 291 290 290
320 323 324 317 326 326 310 314 319 316 316 314 315 316 317 316 315 312 312 312 309 305 299 297 297 297 297 295 295 294 293 292 292 292 292 291 291 291 290 291 291 290 290 289
319 319 320 318 319 313 312 316 315 314 315 314 314 314 315 315 313 311 310 307 303 298 296 298 297 295 295 294 293 292 292 292 292 291 291 291 291 290 290 290 290 290 289 289
315 312 317 315 314 314 313 313 312 312 313 313 313 313 313 314 313 309 305 302 299 297 296 296 295 295 294 292 291 292 292 291 291 291 291 291 291 291 290 290 289 289 289 289
315 314 316 316 315 313 313 312 312 313 314 314 313 313 313 313 312 307 302 299 297 295 293 294 294 293 292 291 291 291 291 290 290 290 290 290 290 290 290 289 289 289 288 288
312 315 318 318 313 313 314 313 312 313 314 314 313 312 309 310 306 301 300 295 294 293 293 293 292 292 291 291 291 291 290 289 289 289 289 290 289 289 289 289 288 288 287 286

GFSCGP_925_thetae_033.txt.gz
Theta_e
322 321 321 320 319 321 319 318 318 319 320 319 319 318 320 324 326 327 329 330 330 329 329 329 328 327 328 331 332 331 330 328 325 325 324 322 321 317 316 314 314 314 313 312
321 321 321 320 319 318 318 318 320 319 319 321 318 319 323 324 326 326 327 329 330 330 331 330 330 330 330 332 331 330 330 328 327 326 324 322 319 318 317 315 314 313 312 312
322 323 321 319 318 318 318 319 320 320 320 320 323 322 324 325 327 328 328 328 328 330 331 332 331 331 332 331 330 330 329 328 327 325 322 320 320 318 316 314 313 312 311 310
322 321 320 319 319 319 321 321 321 322 322 321 323 321 323 326 327 328 329 330 329 330 331 332 332 331 331 330 330 330 329 327 325 321 320 319 318 317 317 315 314 312 310 308
322 321 320 320 322 322 324 321 322 322 321 323 323 321 326 327 326 327 328 329 330 331 332 332 331 332 331 330 329 328 326 323 321 320 319 319 318 318 316 314 313 311 310 308
321 322 322 323 322 322 322 322 323 323 322 324 321 323 323 328 326 327 329 330 331 332 332 331 329 327 326 327 327 326 321 320 319 318 318 318 317 315 313 311 309 306 305 304
320 322 322 322 323 323 322 323 325 325 324 324 323 323 321 322 325 326 330 331 332 331 329 326 323 321 321 322 324 323 319 318 318 317 317 315 313 310 307 307 305 305 304 303
322 323 322 322 323 323 323 322 325 323 321 321 324 320 322 324 323 326 329 329 330 328 326 322 320 319 319 319 319 318 318 317 317 315 313 310 307 306 306 306 304 302 301 301
322 322 321 321 322 321 322 322 323 324 328 325 318 320 325 324 324 325 329 328 329 326 323 321 320 319 319 319 319 318 317 316 315 311 308 307 306 305 304 302 301 300 300 299
322 322 321 321 322 322 323 322 322 322 324 322 319 318 323 324 323 325 328 328 327 325 323 322 320 320 319 319 318 318 316 314 310 308 307 306 306 303 301 300 300 299 298 297
321 320 323 321 322 321 324 322 320 322 323 322 318 320 318 320 322 323 326 327 326 325 323 322 321 320 319 318 317 315 312 309 308 307 307 304 303 301 300 300 299 298 297 297
322 322 324 323 322 322 322 323 323 323 321 321 326 319 318 319 320 322 324 325 325 324 323 323 321 320 319 317 315 313 310 307 307 306 303 303 301 300 300 299 298 297 297 296
323 321 323 324 323 321 320 320 321 320 321 320 327 320 319 319 318 320 321 323 324 324 323 323 322 320 318 316 313 311 307 307 306 304 303 301 300 300 300 298 298 297 296 295
317 321 323 325 322 322 323 320 320 320 321 319 319 318 317 318 318 318 319 320 323 324 323 323 322 319 317 314 312 309 307 306 305 302 302 300 300 300 299 298 298 297 296 295
323 323 322 321 321 320 320 319 320 320 319 321 319 316 315 315 316 317 317 319 320 322 322 322 321 319 316 313 311 308 306 306 302 303 300 300 299 298 298 298 297 296 295 295
322 323 323 324 322 320 320 320 318 318 318 317 317 317 317 317 317 317 316 318 319 321 321 320 319 318 315 313 310 307 305 302 303 300 299 299 298 297 297 297 296 295 294 294
324 323 322 319 318 318 323 321 320 318 318 318 320 318 316 317 316 316 316 317 318 319 320 319 318 316 314 311 309 306 303 303 300 299 299 298 296 297 296 295 294 294 294 294
324 323 323 322 318 326 315 315 315 317 317 317 316 316 316 315 317 317 317 317 317 317 317 318 316 315 313 310 306 303 303 300 298 298 298 296 296 296 295 294 294 294 294 294
319 320 322 329 318 316 314 313 314 315 315 315 315 315 315 316 317 317 317 315 315 315 316 316 315 313 311 307 304 302 300 298 299 297 296 295 295 295 294 294 294 294 293 293
316 317 320 319 328 329 319 314 314 315 317 314 314 314 315 316 318 317 316 314 314 315 315 315 314 311 308 304 301 300 299 299 298 296 295 294 294 294 294 293 293 293 293 292
323 324 327 322 327 321 316 314 315 318 319 316 315 315 316 316 317 318 316 315 315 315 314 313 310 307 303 301 299 300 299 297 295 294 294 294 293 293 293 293 293 293 292 292
323 327 325 325 327 326 314 315 317 319 315 315 316 315 317 318 317 317 315 315 315 314 311 307 304 302 299 300 298 298 297 294 294 293 293 293 292 292 292 292 292 292 292 292
322 322 323 321 321 316 315 314 315 315 315 315 315 315 315 316 316 316 315 313 312 310 304 301 300 299 298 297 296 294 293 293 293 292 292 292 292 292 292 292 292 292 291 291
319 317 319 318 315 315 314 314 314 314 315 315 315 315 315 316 316 316 313 309 306 303 300 299 299 297 296 295 293 293 293 292 292 292 292 292 292 292 292 291 291 291 290 290
319 317 317 318 316 316 315 315 315 316 316 316 316 316 315 315 315 314 308 304 301 297 295 295 295 294 294 293 292 293 292 292 292 291 291 291 291 292 291 291 291 291 290 290
316 318 320 320 316 317 317 316 315 315 314 313 313 313 309 310 309 304 301 297 295 294 294 294 294 294 293 292 292 292 292 291 291 291 291 291 291 291 291 290 290 290 289 289

GFSCGP_925_thetae_039.txt.gz
Theta_e
323 319 321 321 319 320 321 320 318 318 316 322 321 319 318 318 322 324 322 321 320 320 320 324 326 326 326 326 328 330 330 327 324 320 322 322 320 319 317 316 314 315 314 314
323 323 322 321 320 321 322 321 319 319 317 319 320 320 317 316 319 325 325 325 323 324 324 324 324 327 328 328 331 331 330 326 321 321 324 323 320 317 317 315 315 315 313 313
322 323 322 322 321 321 321 321 320 320 317 316 316 318 315 317 319 321 325 326 325 326 327 326 327 330 330 329 331 330 330 328 324 325 326 324 320 318 316 316 315 314 313 312
323 323 324 323 322 319 320 320 322 322 319 317 319 321 321 318 318 319 325 326 326 325 328 327 327 330 331 331 331 330 330 328 326 327 325 321 319 318 316 316 314 313 312 310
324 323 323 323 323 321 321 321 321 322 320 321 320 319 320 320 322 322 319 320 323 325 328 328 328 330 333 332 331 330 330 328 326 327 323 319 319 318 316 315 314 312 312 310
322 321 322 322 321 321 321 322 322 323 322 324 321 322 322 320 321 324 323 323 322 322 329 328 329 331 332 332 331 330 329 328 328 328 321 320 320 315 315 314 313 312 311 309
321 321 321 322 321 321 321 320 325 325 327 327 324 326 322 321 320 322 322 322 323 326 327 329 329 330 330 330 330 329 329 328 328 321 321 320 318 316 314 313 308 306 304 302
320 325 323 322 322 323 321 322 326 329 330 327 325 325 323 321 322 323 323 322 325 326 326 328 329 329 330 329 328 329 330 324 321 320 319 318 314 311 308 306 306 305 303 302
324 326 323 323 322 320 322 322 322 327 325 324 322 318 322 320 323 323 323 324 327 327 326 326 324 327 330 330 328 325 321 320 319 319 318 315 310 307 306 306 306 304 301 300
325 324 323 323 322 320 320 319 322 321 323 324 321 319 325 323 323 325 327 327 327 325 324 321 320 323 325 325 325 323 320 319 318 318 315 309 306 306 305 304 302 301 300 299
323 324 326 324 324 320 321 320 319 319 323 323 322 319 317 319 320 320 325 326 326 324 321 318 317 321 323 323 323 322 319 318 318 314 309 307 306 306 303 302 301 300 300 298
323 323 326 324 322 319 320 323 323 319 320 320 317 319 315 316 317 318 318 325 324 324 321 317 316 319 319 320 320 320 319 318 315 310 308 307 306 303 302 301 300 300 299 298
323 321 320 319 321 322 321 320 319 322 319 321 316 317 315 315 316 318 318 319 322 322 319 318 316 317 318 319 320 319 318 314 311 309 307 306 304 302 302 301 301 299 298 298
322 322 320 318 319 321 322 322 319 319 317 318 317 319 316 315 315 314 315 317 319 321 322 319 318 318 319 319 318 319 318 313 310 308 306 304 303 302 302 301 300 299 298 297
320 319 318 318 320 321 321 321 320 318 319 318 318 319 317 315 314 313 314 316 317 317 320 319 318 317 319 319 317 317 317 311 308 305 304 303 302 300 300 301 299 298 298 297
320 321 321 322 322 319 319 320 318 317 319 318 317 317 315 314 313 312 312 313 314 313 313 318 319 319 318 318 317 316 312 308 306 304 302 301 302 302 298 298 297 297 297 296
322 322 318 322 315 315 313 315 317 318 318 317 316 315 314 313 313 313 313 313 314 313 313 314 317 318 319 318 317 311 308 306 304 303 302 301 299 298 298 297 296 295 295 295
323 322 315 315 313 310 315 314 314 314 313 312 312 311 313 313 312 312 310 310 310 310 311 311 312 316 316 315 312 306 304 304 301 299 299 299 298 296 295 294 294 294 295 294
323 317 318 313 315 316 315 314 315 314 314 313 313 312 312 312 311 314 313 311 311 311 310 311 312 308 307 305 304 304 301 299 299 298 296 295 294 294 294 294 294 294 293 294
318 318 310 315 316 311 315 313 314 313 316 315 314 314 314 313 313 315 313 312 311 305 303 302 301 300 300 298 298 297 297 296 296 295 295 295 295 294 293 293 293 293 294 293
313 313 311 309 310 314 317 314 314 312 314 315 313 314 313 313 315 314 313 311 306 302 300 299 298 298 297 297 297 296 295 294 294 294 294 293 293 293 293 293 293 293 293 292
316 316 311 316 316 317 313 314 314 316 314 313 313 313 314 313 314 313 310 302 301 300 298 297 296 296 296 296 296 294 294 294 295 294 293 293 293 293 292 293 293 292 292 292
319 320 317 317 316 316 312 313 314 313 314 314 314 315 315 314 313 305 302 301 299 297 297 296 296 295 294 294 295 295 295 294 293 293 293 292 292 292 292 292 292 292 292 291
319 318 317 315 317 314 316 315 315 315 314 308 307 309 308 303 302 300 298 297 296 295 295 295 295 295 294 294 294 294 294 294 293 292 292 292 292 292 291 291 291 292 291 291
317 315 316 315 317 317 314 314 312 311 308 304 303 303 301 300 299 297 296 296 295 295 295 295 295 295 294 294 294 293 293 293 292 292 292 291 291 291 291 291 291 290 291 291
316 317 312 314 316 314 311 309 308 306 305 303 301 300 298 297 296 295 295 295 295 295 295 295 295 294 294 293 293 293 292 292 292 291 291 290 290 290 291 290 290 291 290 290